This demonstration page uses our WeatherBlox Daily Observations layout. Learn more.

Left ArrowRight Arrow

39.08367, -84.50855

Hourly Observations for January 8, 2015

Temp ( °F °C ) Dew Point ( °F °C ) Humidity (%) Winds ( mph kmh ) Pressure ( in mb ) Visibility ( mi km ) Precip ( " mm )
12:53 am 00:53 Clear 2 -16.7 -7 -21.7 65 65 W 13 20 30.79 1043 10 16.0934 0 0
1:53 am 01:53 Mostly Cloudy 1 -17.2 -6 -21.1 72 72 W 9 15 30.78 1042 9 14.48406 0 0
2:27 am 02:27 Cloudy with Haze 1 -17.2 -5 -20.6 75 75 W 9 15 30.8 1043 6 9.65604 0 0.0254
2:41 am 02:41 Cloudy 1 -17.2 -5 -20.6 75 75 WSW 8 13 30.8 1043 8 12.87472 0 0.0254
2:53 am 02:53 Cloudy 1 -17.2 -5 -20.6 75 75 W 10 17 30.77 1042 8 12.87472 0 0.0254
3:53 am 03:53 Mostly Cloudy 0 -17.8 -7 -21.7 72 72 WSW 13 20 30.77 1042 10 16.0934 0 0
4:53 am 04:53 Cloudy 0 -17.8 -6 -21.1 76 76 WSW 9 15 30.75 1041 10 16.0934 0 0
5:35 am 05:35 Partly Cloudy 0 -17.8 -7 -21.7 72 72 SW 8 13 30.77 1042 10 16.0934 0 0
5:53 am 05:53 Clear 0 -17.8 -6 -21.1 76 76 SW 6 9 30.73 1041 10 16.0934 0 0
6:53 am 06:53 Clear -1 -18.3 -7 -21.7 75 75 SW 7 11 30.71 1040 10 16.0934 0 0
7:53 am 07:53 Clear -1 -18.3 -7 -21.7 75 75 SW 7 11 30.7 1040 10 16.0934 0 0
8:53 am 08:53 Sunny 1 -17.2 -6 -21.1 72 72 S 9 15 30.68 1039 10 16.0934 0 0
9:53 am 09:53 Sunny 3 -16.1 -3 -19.4 76 76 S 12 19 30.65 1038 10 16.0934 0 0
10:53 am 10:53 Sunny 5 -15 -4 -20 66 66 S 10 17 30.62 1037 10 16.0934 0 0
11:53 am 11:53 Sunny 8 -13.3 -4 -20 57 57 S 10 17 30.55 1035 10 16.0934 0 0
12:53 pm 12:53 Sunny 12 -11.1 -4 -20 48 48 S 16 26 30.48 1032 10 16.0934 0 0
1:53 pm 13:53 Sunny 13 -10.6 -3 -19.4 49 49 SSW 14 22 30.43 1030 10 16.0934 0 0
2:53 pm 14:53 Sunny 15 -9.4 -3 -19.4 44 44 S 13 20 30.36 1028 10 16.0934 0 0
3:53 pm 15:53 Sunny 17 -8.3 -1 -18.3 45 45 S 16 26 30.32 1027 10 16.0934 0 0
4:53 pm 16:53 Sunny 17 -8.3 -2 -18.9 43 43 SSW 17 28 30.28 1026 10 16.0934 0 0
5:53 pm 17:53 Mostly Cloudy 17 -8.3 -1 -18.3 45 45 S 17 28 30.23 1024 10 16.0934 0 0
6:53 pm 18:53 Cloudy 17 -8.3 0 -17.8 47 47 S 16 26 30.16 1021 10 16.0934 0 0
7:53 pm 19:53 Cloudy 19 -7.2 2 -16.7 47 47 SSW 14 22 30.15 1021 10 16.0934 0 0
8:53 pm 20:53 Cloudy 21 -6.1 1 -17.2 41 41 SSW 18 30 30.1 1019 10 16.0934 0 0
9:53 pm 21:53 Cloudy 22 -5.6 2 -16.7 42 42 SW 14 22 30.11 1020 10 16.0934 0 0
10:53 pm 22:53 Mostly Cloudy 24 -4.4 1 -17.2 36 36 SW 18 30 30.08 1019 10 16.0934 0 0
11:53 pm 23:53 Cloudy 25 -3.9 2 -16.7 37 37 SW 20 31 30.07 1018 10 16.0934 0 0

Powered by AerisWeather